STARLINK-1362, 45538

Orbit data source: Space-Track

STARLINK-1362, 45538 is a payload satellite owned by SpaceX/Seattle (US) in LEO that was launched on Wed, 22 Apr 2020 UTC via an FALCON 9 launch vehicle from the Air Force Eastern Test Range (AFETR). Payload-class satellites include a variety of spacecraft equipped with specific instruments for various scientific and technological missions. These include communications satellites like Starlink; space stations such as the ISS; scientific satellites like the Hubble; Earth observation satellites from companies like Planet Labs, Umbra, and HawkEye 360; GPS; miniature CubeSats for education and research; and military/defense satellites.

Loading next visibility...
Identifier
45538, 2020-025H
Orbit
LEO
Country
Flag of USUS
Related business
Manufacturer
SpaceX/Seattle
Mission
Operational Commercial Communications
Bus & Motor
STARLINK, Unknown motor
Mass
260 kg wet, ~248 kg dry
Launch date (UTC)
2020-04-22 (5 years ago)
Launch vehicle
FALCON 9
Launch site
Air Force Eastern Test Range (AFETR)
Object type
Payload
Rocket body
Debris
Shape & HBR
Box + 1 Pan, 10.1 m
Radar Cross Section
13.562 m², Large (>1 m²)

Expand to show TLE details & history
Last TLE update: 15 hours ago

TLE from 15 hours ago
0 STARLINK-1362
1 45538U 20025H   25287.70391137 -.00001114  00000-0 -55919-4 0  9991
2 45538  53.0542  41.6915 0001102  86.3417 273.7698 15.06386049303094
Epoch: 2025-10-14T16:53Z
TLE epoch observation values (Epoch: 2025-10-14T16:53:37.942Z)
Latitude
-0.00001°
Longitude
124.79487°
Altitude
548.083 km
Speed
7.589 km/s
True Right ascension
02h 46m 45s
True Declination
0° 00' 00"
Sunlit
Object was in full shadow at epoch
Visualization orbit readout
Latitude
Unknown
Longitude
Unknown
Altitude
Unknown
Speed
Unknown
Apparent Right ascension
Unknown
Apparent Declination
Unknown
Sunlit
N/A
Visualization observer readout
Local Sidereal Time
02:17:27
Azimuth
Unknown
Elevation
Unknown
Doppler factor
Unknown
Orbital elements
Apogee altitude
548.288 km
Perigee altitude
546.762 km
Semi-major axis
6,925.662 km
Eccentricity
0.00011
Inclination
53.0542°
RAAN
41.6915°
Arg. of periapsis
86.3417°
True anomaly
273.7572°
Mean anomaly
273.7698°
Eccentric anomaly
273.7635°
Mean motion
3.76575 °/min
Orbital period
95.6 mins
BSTAR
-0.000055919
Loading maneuver chart data...
Computing Atmospheric mass density...

Documentation

Showing up to 5 results
|